User: anonymous   Login
Location: Great Northern Moose Lodge
(44.6765°N, 71.1811°W)
Time: 03:46:59
(UTC-04:00)
Language:

Terra - Orbit

View from above orbital plane
View from above orbital plane
View from above satellite
View from above satellite

Ground track
Ground track

The orbit data is extracted from the following two-line orbital elements,

1 25994U 99068A   14297.75014857  .00000711  00000-0  16773-3 0  7579
2 25994 098.2011 010.6194 0001508 099.3455 260.7905 14.57128605789936
Epoch (UTC): 24 October 2014 18:00:12
Eccentricity: 0.0001508
inclination: 98.2011°
perigee height: 701 km
apogee height: 703 km
right ascension of ascending node: 10.6194°
argument of perigee: 99.3455°
revolutions per day: 14.57128605
mean anomaly at epoch: 260.7905°
orbit number at epoch: 78993

The dashed part of the orbit path shows where the satellite is in the earth's shadow,  

DLR